DELTA 1 DEB, 40761

Orbit data source: Space-Track

DELTA 1 DEB, 40761 is space debris in SSO originally from a launch on Thu, 29 Jul 1976 UTC launched from the Air Force Western Test Range (AFWTR). Debris objects in space refer to the collection of defunct objects orbiting the Earth. Examples of debris include non-operational satellites, rocket bodies, and fragments generated from explosions, collisions, or faulty payload assembly.

Loading next visibility...
Identifier
40761, 1976-077GE
Orbit
SSO
Country
Flag of USUS
Related business
Manufacturer
Unknown
Mission
Spacecraft
Bus & Motor
Unknown
Mass
Unknown
Launch date (UTC)
1976-07-29 (50 years ago)
Launch vehicle
Unknown
Launch site
Air Force Western Test Range (AFWTR)
Object type
Payload
Rocket body
Debris
Shape & HBR
Unknown shape, 0.1 m
Radar Cross Section
Medium (>0.1 m² and <1 m²)

Expand to show TLE details & history
Last TLE update: 3 weeks ago

TLE from 3 weeks ago
0 DELTA 1 DEB
1 40761U 76077GE  26150.71622037  .00000127  00000-0  17544-2 0  9990
2 40761 102.4977  76.7605 0178483  23.7557 337.1605 12.11114347344013
Epoch: 2026-05-30T17:11Z
TLE epoch observation values (Epoch: 2026-05-30T17:11:21.439Z)
Latitude
0.00003°
Longitude
-69.30709°
Altitude
1,502.595 km
Speed
7.171 km/s
True Right ascension
05h 07m 02s
True Declination
0° 00' 00"
Sunlit
Object was in daylight at epoch
Visualization orbit readout
Latitude
Unknown
Longitude
Unknown
Altitude
Unknown
Speed
Unknown
Apparent Right ascension
Unknown
Apparent Declination
Unknown
Sunlit
N/A
Visualization observer readout
Local Sidereal Time
21:45:59
Azimuth
Unknown
Elevation
Unknown
Doppler factor
Unknown
Orbital elements
Apogee altitude
1,772.037 km
Perigee altitude
1,486.205 km
Semi-major axis
8,007.258 km
Eccentricity
0.01785
Inclination
102.4977°
RAAN
76.7605°
Arg. of periapsis
23.7557°
True anomaly
336.35°
Mean anomaly
337.1605°
Eccentric anomaly
336.75694°
Mean motion
3.02913 °/min
Orbital period
118.85 mins
BSTAR
0.0017544
Loading maneuver chart data...
Computing Atmospheric mass density...
Loading historical data...
Loading historical data...
Loading historical data...
Loading historical data...
Loading historical data...
Loading historical data...
Loading historical data...

Documentation

Showing up to 5 results
|